This is the latest recevied weather packets stored in our database for station/object VE9LJW. If no packets are shown the sender has not sent any weather packets the latest 10 day(s).
| Time | Temp. | Humidity | Pressure | Rain* | Wind** | Luminosity | Snow |
|---|---|---|---|---|---|---|---|
| 1777405315 | 21.11° C | 22% | 1019.7 hPa | 0 mm | - | 492 W/m² | - |
| 1777405015 | 20.56° C | 22% | 1019.5 hPa | 0 mm | - | 489 W/m² | - |
| 1777404710 | 20.56° C | 21% | 1019.6 hPa | 0 mm | - | 505 W/m² | - |
| 1777404406 | 20.56° C | 21% | 1019.7 hPa | 0 mm | - | 526 W/m² | - |
| 1777404103 | 20.56° C | 24% | 1019.6 hPa | 0 mm | - | 497 W/m² | - |
| 1777403799 | 20.56° C | 23% | 1019.8 hPa | 0 mm | - | 461 W/m² | - |
| 1777403497 | 20.56° C | 23% | 1019.9 hPa | 0 mm | - | 526 W/m² | - |
| 1777403192 | 20.56° C | 23% | 1019.6 hPa | 0 mm | - | 571 W/m² | - |
| 1777402888 | 21.11° C | 23% | 1020 hPa | 0 mm | - | 500 W/m² | - |
| 1777402584 | 20.56° C | 23% | 1020 hPa | 0 mm | - | 604 W/m² | - |
| 1777402282 | 20.56° C | 23% | 1020.1 hPa | 0 mm | - | 602 W/m² | - |
| 1777401976 | 20.56° C | 23% | 1020.4 hPa | 0 mm | - | 588 W/m² | - |
| 1777401675 | 20° C | 25% | 1020.2 hPa | 0 mm | - | 617 W/m² | - |
| 1777401373 | 20.56° C | 28% | 1020.4 hPa | 0 mm | - | 635 W/m² | - |
| 1777401068 | 20.56° C | 23% | 1020.4 hPa | 0 mm | - | 618 W/m² | - |
| 1777400764 | 20.56° C | 24% | 1020.5 hPa | 0 mm | - | 608 W/m² | - |
| 1777400461 | 20° C | 25% | 1020.7 hPa | 0 mm | - | 647 W/m² | - |
| 1777400156 | 20° C | 27% | 1020.8 hPa | 0 mm | - | 661 W/m² | - |
| 1777399854 | 20° C | 25% | 1020.8 hPa | 0 mm | - | 652 W/m² | - |
| 1777399550 | 20.56° C | 25% | 1021 hPa | 0 mm | - | 658 W/m² | - |
| 1777399248 | 20° C | 26% | 1020.9 hPa | 0 mm | - | 659 W/m² | - |
| 1777398945 | 20° C | 26% | 1020.7 hPa | 0 mm | - | 601 W/m² | - |
| 1777398642 | 20.56° C | 28% | 1021 hPa | 0 mm | - | 626 W/m² | - |
| 1777398339 | 20° C | 26% | 1020.7 hPa | 0 mm | - | 680 W/m² | - |
| 1777398036 | 19.44° C | 30% | 1020.9 hPa | 0 mm | - | 663 W/m² | - |
* Rain latest hour (hover to see other rain measurements)
** Current wind speed in m/s (hover to see current wind gust speed)